Location: Brno
(49.2000°N, 16.6330°E)
Time: 10:35:12
(UTC+02:00)

ISS - Pass Details

Date: 25 May 2021
Orbit: 417 x 422 km, 51.6° (Epoch: 13 June)

Event Time Altitude Azimuth Distance (km) Brightness Sun altitude
Rises 22:12:31 0° 288° (WNW) 2,367 1.1 -11.4°
Reaches altitude 10° 22:14:37 10° 289° (WNW) 1,502 0.0 -11.6°
Maximum altitude 22:18:00 81° 16° (NNE) 429 -3.7 -11.9°
Enters shadow 22:20:44 15° 105° (ESE) 1,242 -1.8 -12.2°
